PROFILE

 METAR AND TAF INFORMATION
ADDS - METARS form results

(1058 UTC 15 May 2021)
http://aviationweather.gov/metar/data/
 
LFPG 151030Z 23011KT 9999 SCT021 BKN026 13/09 Q1003 NOSIG
LFPG 151000Z 21012KT 190V250 9999 FEW013 BKN023 12/09 Q1003 NOSIG
TAF LFPG 150500Z 1506/1612 19010KT 9999 BKN012 SCT045 TX16/1515Z TN09/1506Z TEMPO 1506/1509 BKN008 BECMG 1509/1511 BKN040 TEMPO 1511/1524 22015G25KT 4000 -SHRA BKN020TCU PROB40 TEMPO 1512/1518 2500 TSRA SCT030CB PROB30 TEMPO 1515/1517 22015G35KT 2000 TSRAGS TEMPO 1603/1605 BKN011 PROB40 TEMPO 1607/1612 4000 -SHRA BKN025TCU PROB30 TEMPO 1607/1608 2500 SHRA 

 AIRPORT MAP

 RUNWAY INFORMATION
Runway 08L Runway length 13829 ft Runway width 148 ft
Runway elevation 338 ft Runway displaced threshold 0 ft Runway heading 85
Runway 26R Runway length 13829 ft Runway width 148 ft
Runway elevation 318 ft Runway displaced threshold 1969 ft Runway heading 265
Runway 08R Runway length 8858 ft Runway width 197 ft
Runway elevation 336 ft Runway displaced threshold 0 ft Runway heading 85
Runway 26L Runway length 8858 ft Runway width 197 ft
Runway elevation 316 ft Runway displaced threshold 0 ft Runway heading 265
Runway 09L Runway length 8858 ft Runway width 197 ft
Runway elevation 378 ft Runway displaced threshold 0 ft Runway heading 85
Runway 27R Runway length 8858 ft Runway width 197 ft
Runway elevation 392 ft Runway displaced threshold 0 ft Runway heading 265
Runway 09R Runway length 13780 ft Runway width 148 ft
Runway elevation 370 ft Runway displaced threshold 0 ft Runway heading 86
Runway 27L Runway length 13780 ft Runway width 148 ft
Runway elevation 387 ft Runway displaced threshold 1969 ft Runway heading 266

 AIRPORT FREQUENCIES
Type APP Name DE GAULLE Frequency 121.15 MHZ
Type APP Name DE GAULLE Frequency 136.275 MHZ
Type ATIS Name DE GAULLE Frequency 127.125 MHZ
Type DEP Name DE GAULLE Frequency 124.35 MHZ
Type GND Name DE GAULLE Frequency 118.1 MHZ
Type GND Name DE GAULLE Frequency 121.6 MHZ
Type PFLT Name DE GAULLE Frequency 126.65 MHZ
Type TWR Name DE GAULLE Frequency 119.25 MHZ
Type TWR Name DE GAULLE Frequency 120.65 MHZ

 AIRPORT NEAR NAVIGATION AIDS
Type VOR-DME Name Charles de Gaulle Frequency 115350 KHZ
Type VOR-DME Name Charles de Gaulle Frequency 117050 KHZ